Location: Cutler
(25.6150°N, 80.3110°W)
Time: 23:57:51
(UTC-04:00)

Vanguard 1 - Pass Details

Date: 23 January 2018
Orbit: 650 x 3833 km, 34.3° (Epoch: 21 May)

Event Time Altitude Azimuth Distance (km) Brightness Sun altitude
Rises 20:40:18 0° 219° (SW) 2,949 13.1 -36.2°
Enters shadow 20:42:16 - 211° (SSW) 2,186 12.2 -36.6°
Reaches altitude 10° 20:42:38 10° 209° (SSW) 2,048 - -36.7°
Maximum altitude 20:46:39 33° 143° (SE) 1,199 - -37.6°
Drops below altitude 10° 20:51:47 10° 80° (E) 2,633 - -38.8°
Sets 20:55:12 0° 71° (ENE) 3,958 - -39.6°
